星链-5405 (STARLINK-5405 )

导读

STARLINK-5405是美国SpaceX公司星链星座的一颗互联网通信卫星,于2022年12月28日发射升空,重量约297kg,运行在近550公里的近地轨道。作为星链低轨星座的组成部分,它采用氪工质霍尔推进,具备自主避撞能力,旨在为全球提供宽带互联网接入服务,单颗设计寿命约5-7年,退役后会主动离轨再入大气层销毁。

基本信息
目录编号:
54863
目录名称:
STARLINK-5405
国际标识:
2022-177AV
轨道中心:
EARTH
卫星名称:
星链-5405
卫星全名:
星链-5405 (STARLINK-5405 )
卫星状态:
在轨 (已飞行1265 天)
发射日期:
2022-12-28 UTC
国别 :
美国 (US)
星等 :
--
轨道信息
数据来源 国际轨道数据 AOE轨道数据
星历时间 2026-06-14T10:10:38+0800
1天前
查看轨道信息
2026-06-15T08:00:00+0800
7小时前
查看轨道信息
半长轴 6861.192km 6861.155km
偏心率 0.0001571 0.0001878
轨道倾角 43.002° 43.005°
近地点辐角 283.271° 276.278°
升交点赤经 297.183° 292.049°
平近点角 76.796° 50.117°
近地点 481.977km 481.729km
远地点 484.133km 484.307km
周期 94.267分钟 94.266分钟
每日圈数 15.275781 15.275906
详细信息
固有亮度:
5
最大亮度:
2.5
卫星平台:
Starlink v1.5
覆盖范围:
全球
运营商:
太空探索技术公司
运营商所在国:
美国
制造商(研发单位):
太空探索技术公司
制造商所在国:
美国
使用方式:
暂无
卫星简介
星链(Starlink)计划是由太空探索技术公司(SpaceX)提出的一个巨型低轨卫星互联网星座项目,计划在2019年至2024年间在太空搭建由约1.2万颗卫星组成的“星链”网络,其中1584颗将部署在地球上空550千米处的近地轨道,并从2020年开始工作。该卫星仍在工作。
2D轨道图
3D轨道图
轨道高度分析图
轨道倾角分析图
轨道综合分析图
查看轨道综合分析图